Location: Bonningues
(50.7927°N, 2.0150°E)
Time: 04:47:13
(UTC+00:00)

CZ-2D R/B - Pass Details

Date: 08 August 2020
Orbit: 792 x 845 km, 98.7° (Epoch: 23 September)

Event Time Altitude Azimuth Distance (km) Brightness Sun altitude
Rises 23:46:36 0° 31° (NNE) 3,414 6.2 -23.4°
Reaches altitude 10° 23:50:59 10° 65° (ENE) 2,475 4.9 -23.4°
Maximum altitude 23:52:42 11° 83° (E) 2,372 4.6 -23.4°
Drops below altitude 10° 23:54:25 10° 102° (ESE) 2,469 4.5 -23.4°
Enters shadow 23:54:54 - 106° (ESE) 2,530 4.5 -23.4°
